| time (UTC) | temp F | wind direction | speed MPH | gust MPH | rain 1hr in | rain 24hr in | rain mn in | humidity % | barometer mb |
| 20260505023315 | 69 | 237 | 1.0 | 3.0 | 0.00 | 0.00 | 0.00 | 65 | 1002.5 |
| 20260505022813 | 69 | 165 | 2.0 | 3.0 | 0.00 | 0.00 | 0.00 | 65 | 1002.4 |
| 20260505022310 | 69 | 144 | 2.0 | 5.0 | 0.00 | 0.00 | 0.00 | 65 | 1002.3 |
| 20260505021807 | 69 | 197 | 1.0 | 3.0 | 0.00 | 0.00 | 0.00 | 65 | 1002.2 |
| 20260505021303 | 69 | 187 | 2.0 | 3.0 | 0.00 | 0.00 | 0.00 | 65 | 1002.1 |
| 20260505020759 | 69 | 165 | 2.0 | 3.0 | 0.00 | 0.00 | 0.00 | 65 | 1002.3 |
| 20260505020254 | 69 | 184 | 1.0 | 2.0 | 0.00 | 0.00 | 0.00 | 65 | 1001.7 |
| 20260505015752 | 69 | 193 | 3.0 | 3.0 | 0.00 | 0.00 | 0.00 | 65 | 1001.6 |
| 20260505015249 | 69 | 167 | 3.0 | 6.0 | 0.00 | 0.00 | 0.00 | 64 | 1001.5 |
| 20260505014746 | 70 | 123 | 1.0 | 3.0 | 0.00 | 0.00 | 0.00 | 64 | 1001.7 |
| 20260505014243 | 70 | 183 | 2.0 | 3.0 | 0.00 | 0.00 | 0.00 | 63 | 1001.5 |
| 20260505013739 | 70 | 185 | 3.0 | 3.0 | 0.00 | 0.00 | 0.00 | 63 | 1001.2 |
| 20260505013237 | 70 | 215 | 1.0 | 2.0 | 0.00 | 0.00 | 0.00 | 62 | 1001.4 |
| 20260505012735 | 71 | 185 | 2.0 | 2.0 | 0.00 | 0.00 | 0.00 | 62 | 1001.7 |
| 20260505012232 | 71 | 208 | 2.0 | 2.0 | 0.00 | 0.00 | 0.00 | 60 | 1001.5 |
| 20260505011728 | 71 | 172 | 3.0 | 5.0 | 0.00 | 0.00 | 0.00 | 61 | 1001.5 |
| 20260505011225 | 71 | 193 | 3.0 | 5.0 | 0.00 | 0.00 | 0.00 | 59 | 1001.4 |
| 20260505010721 | 72 | 183 | 4.0 | 6.0 | 0.00 | 0.00 | 0.00 | 59 | 1001.2 |
| 20260505010217 | 72 | 202 | 4.0 | 7.0 | 0.00 | 0.00 | 0.00 | 59 | 1001.3 |
| 20260505005714 | 72 | 165 | 4.0 | 9.0 | 0.00 | 0.00 | 0.00 | 58 | 1001.1 |
| 20260505005211 | 72 | 166 | 4.0 | 8.0 | 0.00 | 0.00 | 0.00 | 58 | 1001.5 |
| 20260505004708 | 72 | 189 | 4.0 | 5.0 | 0.00 | 0.00 | 0.00 | 58 | 1001.4 |
| 20260505004204 | 73 | 168 | 4.0 | 5.0 | 0.00 | 0.00 | 0.00 | 58 | 1001.4 |
| 20260505003702 | 73 | 169 | 3.0 | 6.0 | 0.00 | 0.00 | 0.00 | 57 | 1001.4 |
| 20260505003159 | 73 | 218 | 7.0 | 9.0 | 0.00 | 0.00 | 0.00 | 56 | 1001.4 |
| 20260505002655 | 73 | 251 | 2.0 | 6.0 | 0.00 | 0.00 | 0.00 | 56 | 1001.3 |
| 20260505002153 | 74 | 165 | 1.0 | 5.0 | 0.00 | 0.00 | 0.00 | 56 | 1001.5 |
| 20260505001650 | 74 | 214 | 4.0 | 8.0 | 0.00 | 0.00 | 0.00 | 54 | 1001.4 |
| 20260505001148 | 74 | 185 | 5.0 | 8.0 | 0.00 | 0.00 | 0.00 | 54 | 1001.6 |
| 20260505000644 | 74 | 193 | 5.0 | 6.0 | 0.00 | 0.00 | 0.00 | 54 | 1001.6 |
| 20260505000143 | 75 | 212 | 2.0 | 5.0 | 0.00 | 0.00 | 0.00 | 53 | 1001.8 |
| 20260504235638 | 75 | 214 | 3.0 | 10.0 | 0.00 | 0.00 | 0.00 | 52 | 1001.8 |
| 20260504235135 | 75 | 233 | 5.0 | 10.0 | 0.00 | 0.00 | 0.00 | 51 | 1001.6 |
| 20260504234632 | 75 | 289 | 2.0 | 7.0 | 0.00 | 0.00 | 0.00 | 51 | 1002.1 |
| 20260504234130 | 75 | 203 | 2.0 | 3.0 | 0.00 | 0.00 | 0.00 | 51 | 1001.8 |
| 20260504233625 | 75 | 185 | 3.0 | 10.0 | 0.00 | 0.00 | 0.00 | 52 | 1002.2 |
| 20260504233121 | 75 | 167 | 5.0 | 11.0 | 0.00 | 0.00 | 0.00 | 51 | 1002.2 |
| 20260504232619 | 75 | 205 | 9.0 | 14.0 | 0.00 | 0.00 | 0.00 | 51 | 1002.1 |
| 20260504232116 | 75 | 201 | 0.0 | 5.0 | 0.00 | 0.00 | 0.00 | 52 | 1002.2 |
| 20260504231613 | 76 | 207 | 5.0 | 9.0 | 0.00 | 0.00 | 0.00 | 51 | 1002.1 |
| 20260504231109 | 76 | 107 | 2.0 | 16.0 | 0.00 | 0.00 | 0.00 | 53 | 1002.1 |
| 20260504230605 | 77 | 206 | 3.0 | 7.0 | 0.00 | 0.00 | 0.00 | 54 | 1002.1 |
| 20260504230104 | 76 | 263 | 3.0 | 6.0 | 0.00 | 0.00 | 0.00 | 54 | 1002.1 |
| 20260504225601 | 76 | 127 | 3.0 | 9.0 | 0.00 | 0.00 | 0.00 | 56 | 1002.1 |
| 20260504225058 | 76 | 196 | 1.0 | 3.0 | 0.00 | 0.00 | 0.00 | 56 | 1002.2 |
| 20260504224555 | 75 | 163 | 1.0 | 5.0 | 0.00 | 0.00 | 0.00 | 56 | 1002.2 |
| 20260504224052 | 75 | 174 | 2.0 | 5.0 | 0.00 | 0.00 | 0.00 | 56 | 1002.4 |
| 20260504223549 | 75 | 183 | 2.0 | 3.0 | 0.00 | 0.00 | 0.00 | 56 | 1002.3 |
| 20260504223044 | 75 | 184 | 1.0 | 3.0 | 0.00 | 0.00 | 0.00 | 56 | 1002.3 |
| 20260504222542 | 75 | 194 | 1.0 | 5.0 | 0.00 | 0.00 | 0.00 | 55 | 1002.5 |
| 20260504222039 | 75 | 182 | 2.0 | 3.0 | 0.00 | 0.00 | 0.00 | 55 | 1002.6 |
| 20260504221536 | 75 | 223 | 3.0 | 5.0 | 0.00 | 0.00 | 0.00 | 54 | 1002.6 |
| 20260504221032 | 75 | 229 | 1.0 | 5.0 | 0.00 | 0.00 | 0.00 | 54 | 1002.7 |
| 20260504220529 | 75 | 253 | 2.0 | 3.0 | 0.00 | 0.00 | 0.00 | 55 | 1002.6 |
| 20260504220026 | 75 | 246 | 3.0 | 3.0 | 0.00 | 0.00 | 0.00 | 54 | 1002.7 |
| 20260504215522 | 75 | 275 | 0.0 | 2.0 | 0.00 | 0.00 | 0.00 | 54 | 1002.8 |
| 20260504215020 | 75 | 216 | 0.0 | 5.0 | 0.00 | 0.00 | 0.00 | 53 | 1002.6 |
| 20260504214516 | 75 | 218 | 0.0 | 3.0 | 0.00 | 0.00 | 0.00 | 54 | 1002.5 |
| 20260504214012 | 75 | 195 | 0.0 | 8.0 | 0.00 | 0.00 | 0.00 | 54 | 1002.5 |
| 20260504213509 | 75 | 208 | 0.0 | 3.0 | 0.00 | 0.00 | 0.00 | 55 | 1002.9 |
| 20260504213007 | 75 | 268 | 0.0 | 1.0 | 0.00 | 0.00 | 0.00 | 56 | 1003.1 |
| 20260504212502 | 75 | 313 | 0.0 | 3.0 | 0.00 | 0.00 | 0.00 | 54 | 1003.3 |
| 20260504212000 | 75 | 300 | 0.0 | 2.0 | 0.00 | 0.00 | 0.00 | 55 | 1003.4 |
| 20260504211456 | 75 | 336 | 0.0 | 3.0 | 0.00 | 0.00 | 0.00 | 54 | 1003.5 |
| 20260504210954 | 76 | 191 | 0.0 | 2.0 | 0.00 | 0.00 | 0.00 | 54 | 1003.4 |
| 20260504210450 | 75 | 210 | 0.0 | 3.0 | 0.00 | 0.00 | 0.00 | 55 | 1003.4 |
| 20260504205947 | 75 | 187 | 1.0 | 6.0 | 0.00 | 0.00 | 0.00 | 53 | 1003.5 |
| 20260504205445 | 75 | 290 | 0.0 | 5.0 | 0.00 | 0.00 | 0.00 | 54 | 1003.6 |
| 20260504204943 | 75 | 295 | 0.0 | 1.0 | 0.00 | 0.00 | 0.00 | 56 | 1003.8 |
| 20260504204441 | 74 | 285 | 3.0 | 5.0 | 0.00 | 0.00 | 0.00 | 55 | 1003.6 |
| 20260504203940 | 74 | 222 | 4.0 | 8.0 | 0.00 | 0.00 | 0.00 | 56 | 1003.8 |
| 20260504203437 | 74 | 213 | 4.0 | 6.0 | 0.00 | 0.00 | 0.00 | 56 | 1003.6 |
| 20260504202933 | 74 | 218 | 1.0 | 2.0 | 0.00 | 0.00 | 0.00 | 56 | 1004.0 |
| 20260504202430 | 74 | 128 | 0.0 | 8.0 | 0.00 | 0.00 | 0.00 | 56 | 1004.1 |
| 20260504201926 | 74 | 48 | 5.0 | 6.0 | 0.00 | 0.00 | 0.00 | 58 | 1004.2 |
| 20260504201424 | 73 | 234 | 0.0 | 7.0 | 0.00 | 0.00 | 0.00 | 59 | 1004.2 |
| 20260504200921 | 74 | 185 | 5.0 | 8.0 | 0.00 | 0.00 | 0.00 | 58 | 1003.9 |
| 20260504200418 | 74 | 244 | 0.0 | 3.0 | 0.00 | 0.00 | 0.00 | 59 | 1003.9 |
| 20260504195915 | 74 | 356 | 0.0 | 8.0 | 0.00 | 0.00 | 0.00 | 60 | 1004.2 |
| 20260504195410 | 73 | 208 | 3.0 | 10.0 | 0.00 | 0.00 | 0.00 | 60 | 1004.2 |
| 20260504194907 | 71 | 112 | 1.0 | 7.0 | 0.00 | 0.00 | 0.00 | 64 | 1004.2 |
| 20260504194403 | 71 | 189 | 3.0 | 9.0 | 0.00 | 0.00 | 0.00 | 64 | 1004.1 |
| 20260504193859 | 70 | 200 | 3.0 | 8.0 | 0.00 | 0.00 | 0.00 | 66 | 1004.1 |
| 20260504193356 | 69 | 196 | 4.0 | 7.0 | 0.00 | 0.00 | 0.00 | 68 | 1004.3 |
| 20260504192855 | 69 | 184 | 0.0 | 9.0 | 0.00 | 0.00 | 0.00 | 69 | 1004.7 |
| 20260504192352 | 68 | 232 | 7.0 | 8.0 | 0.00 | 0.00 | 0.00 | 70 | 1004.6 |
| 20260504191850 | 68 | 269 | 0.0 | 3.0 | 0.00 | 0.00 | 0.00 | 73 | 1004.6 |
| 20260504191348 | 67 | 165 | 1.0 | 2.0 | 0.00 | 0.00 | 0.00 | 73 | 1004.5 |
| 20260504190843 | 67 | 163 | 2.0 | 5.0 | 0.00 | 0.00 | 0.00 | 74 | 1005.0 |
| 20260504190339 | 68 | 215 | 3.0 | 7.0 | 0.00 | 0.00 | 0.00 | 73 | 1005.3 |
| 20260504185836 | 67 | 223 | 3.0 | 5.0 | 0.00 | 0.00 | 0.00 | 72 | 1004.9 |
| 20260504185333 | 67 | 180 | 2.0 | 3.0 | 0.00 | 0.00 | 0.00 | 72 | 1004.8 |
| 20260504184829 | 68 | 206 | 4.0 | 6.0 | 0.00 | 0.00 | 0.00 | 69 | 1005.4 |
| 20260504184325 | 68 | 300 | 0.0 | 7.0 | 0.00 | 0.00 | 0.00 | 67 | 1005.7 |
| 20260504183821 | 69 | 267 | 2.0 | 7.0 | 0.00 | 0.00 | 0.00 | 66 | 1005.2 |
| 20260504183319 | 69 | 190 | 7.0 | 11.0 | 0.00 | 0.00 | 0.00 | 65 | 1005.3 |
| 20260504182816 | 69 | 208 | 4.0 | 6.0 | 0.00 | 0.00 | 0.00 | 65 | 1005.0 |
| 20260504182314 | 69 | 239 | 9.0 | 13.0 | 0.00 | 0.00 | 0.00 | 64 | 1005.0 |
| 20260504181810 | 70 | 176 | 3.0 | 11.0 | 0.00 | 0.00 | 0.00 | 63 | 1004.9 |
| 20260504181308 | 71 | 188 | 2.0 | 8.0 | 0.00 | 0.00 | 0.00 | 63 | 1004.8 |
| 20260504180807 | 71 | 231 | 3.0 | 9.0 | 0.00 | 0.00 | 0.00 | 63 | 1004.5 |
| 20260504180305 | 71 | 205 | 7.0 | 11.0 | 0.00 | 0.00 | 0.00 | 62 | 1004.4 |
| 20260504175803 | 72 | 220 | 7.0 | 15.0 | 0.00 | 0.00 | 0.00 | 62 | 1004.7 |
| 20260504175259 | 73 | 300 | 2.0 | 14.0 | 0.00 | 0.00 | 0.00 | 61 | 1004.3 |
| 20260504174757 | 72 | 304 | 0.0 | 9.0 | 0.00 | 0.00 | 0.00 | 62 | 1004.1 |
| 20260504174255 | 71 | 340 | 5.0 | 10.0 | 0.00 | 0.00 | 0.00 | 63 | 1004.1 |
| 20260504173751 | 71 | 220 | 1.0 | 8.0 | 0.00 | 0.00 | 0.00 | 63 | 1004.1 |
| 20260504173248 | 71 | 195 | 5.0 | 14.0 | 0.00 | 0.00 | 0.00 | 63 | 1004.0 |
| 20260504172745 | 71 | 189 | 4.0 | 8.0 | 0.00 | 0.00 | 0.00 | 64 | 1004.0 |
| 20260504172242 | 71 | 190 | 6.0 | 9.0 | 0.00 | 0.00 | 0.00 | 63 | 1004.4 |
| 20260504171737 | 70 | 180 | 2.0 | 3.0 | 0.00 | 0.00 | 0.00 | 64 | 1004.4 |
| 20260504171235 | 70 | 157 | 2.0 | 2.0 | 0.00 | 0.00 | 0.00 | 64 | 1004.6 |
| 20260504170732 | 69 | 182 | 5.0 | 6.0 | 0.00 | 0.00 | 0.00 | 64 | 1004.2 |
| 20260504170229 | 68 | 181 | 3.0 | 6.0 | 0.00 | 0.00 | 0.00 | 66 | 1004.3 |
| 20260504160147 | 65 | 230 | 0.0 | 5.0 | 0.00 | 0.00 | 0.00 | 67 | 1005.4 |
| 20260504151115 | 64 | 202 | 4.0 | 7.0 | 0.00 | 0.00 | 0.00 | 66 | 1005.5 |
| 20260504150612 | 64 | 177 | 3.0 | 7.0 | 0.00 | 0.00 | 0.00 | 66 | 1005.0 |
| 20260504150109 | 65 | 210 | 6.0 | 11.0 | 0.00 | 0.00 | 0.00 | 66 | 1005.4 |
| 20260504141038 | 63 | 193 | 4.0 | 5.0 | 0.00 | 0.00 | 0.00 | 67 | 1005.4 |
| 20260504140535 | 62 | 231 | 2.0 | 5.0 | 0.00 | 0.00 | 0.00 | 67 | 1005.5 |
| 20260504130459 | 58 | 176 | 5.0 | 8.0 | 0.00 | 0.00 | 0.00 | 72 | 1005.9 |
| 20260504110346 | 52 | 162 | 1.0 | 1.0 | 0.00 | 0.00 | 0.00 | 76 | 1005.7 |
| 20260504100303 | 50 | 149 | 0.0 | 1.0 | 0.00 | 0.00 | 0.00 | 77 | 1005.9 |
| 20260504081657 | 54 | 178 | 1.0 | 2.0 | 0.00 | 0.00 | 0.00 | 67 | 1006.8 |
| 20260504081153 | 54 | 160 | 2.0 | 2.0 | 0.00 | 0.00 | 0.00 | 66 | 1006.6 |
| 20260504080649 | 55 | 178 | 2.0 | 3.0 | 0.00 | 0.00 | 0.00 | 66 | 1006.8 |
| 20260504080146 | 55 | 170 | 2.0 | 5.0 | 0.00 | 0.00 | 0.00 | 66 | 1006.7 |
| 20260504070114 | 55 | 190 | 1.0 | 2.0 | 0.00 | 0.00 | 0.00 | 64 | 1007.1 |
| 20260504050502 | 54 | 188 | 2.0 | 2.0 | 0.00 | 0.00 | 0.00 | 66 | 1008.5 |
| 20260504045959 | 54 | 173 | 1.0 | 2.0 | 0.00 | 0.00 | 0.00 | 66 | 1008.3 |
| 20260504045455 | 54 | 186 | 1.0 | 3.0 | 0.00 | 0.00 | 0.00 | 66 | 1008.4 |
| 20260504044951 | 54 | 159 | 2.0 | 2.0 | 0.00 | 0.00 | 0.00 | 65 | 1008.8 |
| 20260504044449 | 54 | 154 | 2.0 | 2.0 | 0.00 | 0.00 | 0.00 | 66 | 1008.5 |
| 20260504043946 | 54 | 201 | 1.0 | 2.0 | 0.00 | 0.00 | 0.00 | 66 | 1008.5 |
| 20260504043443 | 54 | 142 | 2.0 | 3.0 | 0.00 | 0.00 | 0.00 | 66 | 1008.7 |
| 20260504042941 | 54 | 199 | 3.0 | 3.0 | 0.00 | 0.00 | 0.00 | 66 | 1008.7 |
| 20260504042437 | 54 | 156 | 1.0 | 2.0 | 0.00 | 0.00 | 0.00 | 66 | 1008.7 |
| 20260504041934 | 54 | 169 | 2.0 | 2.0 | 0.00 | 0.00 | 0.00 | 66 | 1008.9 |
| 20260504041430 | 54 | 196 | 2.0 | 3.0 | 0.00 | 0.00 | 0.00 | 65 | 1008.8 |
| 20260504040926 | 54 | 168 | 3.0 | 5.0 | 0.00 | 0.00 | 0.00 | 65 | 1008.8 |
| 20260504040424 | 54 | 167 | 2.0 | 5.0 | 0.00 | 0.00 | 0.00 | 65 | 1008.8 |
| 20260504035920 | 54 | 180 | 3.0 | 3.0 | 0.00 | 0.00 | 0.00 | 65 | 1008.8 |
| 20260504035417 | 54 | 181 | 2.0 | 2.0 | 0.00 | 0.00 | 0.00 | 64 | 1009.1 |
| 20260504034914 | 55 | 176 | 2.0 | 3.0 | 0.00 | 0.00 | 0.00 | 64 | 1008.9 |
| 20260504034412 | 55 | 184 | 3.0 | 6.0 | 0.00 | 0.00 | 0.00 | 63 | 1008.9 |
| 20260504033908 | 55 | 156 | 2.0 | 5.0 | 0.00 | 0.00 | 0.00 | 63 | 1009.3 |
| 20260504033406 | 55 | 170 | 2.0 | 3.0 | 0.00 | 0.00 | 0.00 | 63 | 1009.1 |
| 20260504032903 | 56 | 162 | 1.0 | 2.0 | 0.00 | 0.00 | 0.00 | 62 | 1009.3 |
| 20260504032400 | 56 | 168 | 1.0 | 3.0 | 0.00 | 0.00 | 0.00 | 62 | 1009.2 |
| 20260504031856 | 56 | 171 | 3.0 | 3.0 | 0.00 | 0.00 | 0.00 | 61 | 1009.1 |
| 20260504031353 | 56 | 181 | 2.0 | 3.0 | 0.00 | 0.00 | 0.00 | 61 | 1009.3 |
| 20260504030850 | 56 | 191 | 2.0 | 5.0 | 0.00 | 0.00 | 0.00 | 61 | 1009.1 |
| 20260504030347 | 56 | 168 | 4.0 | 6.0 | 0.00 | 0.00 | 0.00 | 60 | 1009.5 |
| 20260504025843 | 56 | 156 | 1.0 | 3.0 | 0.00 | 0.00 | 0.00 | 60 | 1009.2 |
| 20260504025340 | 57 | 188 | 1.0 | 2.0 | 0.00 | 0.00 | 0.00 | 60 | 1009.5 |
| 20260504024837 | 57 | 191 | 2.0 | 3.0 | 0.00 | 0.00 | 0.00 | 59 | 1009.6 |
| 20260504024333 | 57 | 182 | 2.0 | 3.0 | 0.00 | 0.00 | 0.00 | 59 | 1009.4 |
| 20260504023830 | 57 | 180 | 3.0 | 3.0 | 0.00 | 0.00 | 0.00 | 58 | 1009.5 |